| time (UTC) | temp F | wind direction | speed MPH | gust MPH | rain 1hr in | rain 24hr in | rain mn in | humidity % | barometer mb |
| 20260508000606 | 63 | 0 | 9.0 | 15.0 | 0.00 | 0.00 | 0.00 | 11 | 1025.8 |
| 20260507230111 | 65 | 0 | 6.0 | 12.0 | 0.00 | 0.00 | 0.00 | 11 | 1026.4 |
| 20260507220606 | 64 | 0 | 3.0 | 10.0 | 0.00 | 0.00 | 0.00 | 9 | 1027.4 |
| 20260507210606 | 63 | 0 | 2.0 | 13.0 | 0.00 | 0.00 | 0.00 | 9 | 1028.6 |
| 20260507210111 | 63 | 0 | 5.0 | 13.0 | 0.00 | 0.00 | 0.00 | 9 | 1028.7 |
| 20260507190606 | 62 | 0 | 1.0 | 20.0 | 0.00 | 0.00 | 0.00 | 10 | 1030.4 |
| 20260507190111 | 62 | 0 | 3.0 | 20.0 | 0.00 | 0.00 | 0.00 | 10 | 1030.5 |
| 20260507180111 | 60 | 0 | 2.0 | 9.0 | 0.00 | 0.00 | 0.00 | 11 | 1031.6 |
| 20260507170606 | 57 | 0 | 1.0 | 5.0 | 0.00 | 0.00 | 0.00 | 15 | 1032.3 |
| 20260507170110 | 57 | 0 | 1.0 | 5.0 | 0.00 | 0.00 | 0.00 | 14 | 1032.4 |
| 20260507160605 | 52 | 0 | 0.0 | 6.0 | 0.00 | 0.00 | 0.00 | 19 | 1033.5 |
| 20260507160111 | 52 | 0 | 0.0 | 3.0 | 0.00 | 0.00 | 0.00 | 17 | 1033.6 |
| 20260507150606 | 49 | 0 | 0.0 | 1.0 | 0.00 | 0.05 | 0.00 | 20 | 1034.4 |
| 20260507150111 | 48 | 0 | 0.0 | 1.0 | 0.00 | 0.06 | 0.00 | 22 | 1034.4 |
| 20260507140606 | 40 | 0 | 0.0 | 2.0 | 0.00 | 0.09 | 0.00 | 30 | 1034.7 |
| 20260507140111 | 40 | 0 | 0.0 | 1.0 | 0.00 | 0.09 | 0.00 | 31 | 1034.7 |
| 20260507130606 | 35 | 0 | 0.0 | 2.0 | 0.00 | 0.09 | 0.00 | 37 | 1034.4 |
| 20260507130111 | 34 | 0 | 0.0 | 2.0 | 0.00 | 0.09 | 0.00 | 38 | 1034.4 |
| 20260507120605 | 27 | 0 | 0.0 | 0.0 | 0.00 | 0.09 | 0.00 | 49 | 1033.9 |
| 20260507120110 | 27 | 0 | 0.0 | 0.0 | 0.00 | 0.09 | 0.00 | 48 | 1033.8 |
| 20260507110605 | 29 | 0 | 0.0 | 0.0 | 0.00 | 0.09 | 0.00 | 46 | 1033.1 |
| 20260507110110 | 29 | 0 | 0.0 | 0.0 | 0.00 | 0.09 | 0.00 | 46 | 1033.1 |
| 20260507100606 | 30 | 0 | 0.0 | 0.0 | 0.00 | 0.09 | 0.00 | 44 | 1033.2 |
| 20260507100111 | 30 | 0 | 0.0 | 1.0 | 0.00 | 0.09 | 0.00 | 44 | 1033.1 |
| 20260507090605 | 29 | 0 | 0.0 | 0.0 | 0.00 | 0.09 | 0.00 | 46 | 1033.2 |
| 20260507090110 | 29 | 0 | 0.0 | 0.0 | 0.00 | 0.09 | 0.00 | 46 | 1033.3 |
| 20260507080605 | 31 | 0 | 0.0 | 0.0 | 0.00 | 0.09 | 0.00 | 42 | 1032.9 |
| 20260507070609 | 29 | 0 | 0.0 | 0.0 | 0.00 | 0.09 | 0.00 | 47 | 1033.3 |
| 20260507070110 | 28 | 0 | 0.0 | 0.0 | 0.00 | 0.09 | 0.00 | 48 | 1033.4 |
| 20260507060110 | 31 | 0 | 0.0 | 0.0 | 0.00 | 0.09 | 0.00 | 40 | 1032.7 |
| 20260507050607 | 33 | 0 | 0.0 | 0.0 | 0.00 | 0.09 | 0.09 | 36 | 1032.5 |
| 20260507050113 | 33 | 0 | 0.0 | 0.0 | 0.00 | 0.09 | 0.09 | 36 | 1032.5 |
| 20260507040607 | 34 | 0 | 0.0 | 0.0 | 0.00 | 0.09 | 0.09 | 32 | 1031.9 |
| 20260507040115 | 34 | 0 | 0.0 | 0.0 | 0.00 | 0.09 | 0.09 | 32 | 1032.0 |
| 20260507030607 | 40 | 0 | 0.0 | 3.0 | 0.00 | 0.09 | 0.09 | 23 | 1030.8 |
| 20260507020607 | 43 | 0 | 2.0 | 8.0 | 0.00 | 0.09 | 0.09 | 17 | 1030.0 |
| 20260507020114 | 44 | 0 | 3.0 | 8.0 | 0.00 | 0.09 | 0.09 | 16 | 1029.9 |
| 20260507010610 | 48 | 0 | 3.0 | 8.0 | 0.00 | 0.09 | 0.09 | 15 | 1028.7 |
| 20260507010112 | 49 | 0 | 5.0 | 8.0 | 0.00 | 0.09 | 0.09 | 14 | 1028.6 |